{"data":{"norad_id":63347,"intl_designator":"2025-059D","name":"YUNYAO-1 46","alt_names":[],"object_type":"PAYLOAD","status":"ACTIVE","operator":null,"country":"PRC","launch_date":"2025-03-21","launch_site_code":"JSC","launch_vehicle":null,"mission":null,"orbit_class":"UNKNOWN","rcs_meters":null,"size_class":null,"mass_kg":null,"dimensions":null,"purposes":[],"wikipedia_slug":null,"has_3d_model":false,"image_url":null,"decayed_at":null,"tle_current":{"epoch":"2026-09-22T23:07:46.849152Z","epoch_age_seconds":93396,"freshness":"FRESH","line1":"1 63347U 25059D   26265.96373668  .00002140  00000+0  13046-3 0  9996","line2":"2 63347  97.6148  86.9109 0011927 162.5338 197.6304 15.11400039 83062","mean_motion":15.11400039,"eccentricity":0.0011927,"inclination_deg":97.6148,"raan_deg":86.9109,"arg_perigee_deg":162.5338,"mean_anomaly_deg":197.6304,"bstar":0.00013046,"rev_number":8306,"period_min":95.275900677676,"perigee_km":523.68778489635,"apogee_km":540.17105733729,"semimajor_km":6910.0664211168,"source":"CELESTRAK","updated_at":"2026-09-23T09:00:22.029170Z"}}}